Tracking 18917 objects as of 16-Jan-2018
HD Live streaming from Space Station
objects crossing your sky now

TITAN 3C TRANSTAGE R/B

Track TITAN 3C TRANSTAGE R/B now!


NORAD ID: 10942
Int'l Code: 1978-058B
Perigee: 29,597.1 km
Apogee: 42,357.2 km
Inclination: 7.6 °
Period: 1,445.5 minutes
Semi major axis: 42348 km
RCS: Unknown
Launch date: June 10, 1978
Source: United States (US)
Launch site: AIR FORCE EASTERN TEST RANGE (AFETR)

Note: This is a ROCKET BODY
aabbcc
Your satellite tracking list
Your tracking list is empty




NASA's NSSDC Master Catalog

Two Line Element Set (TLE):
1 10942U 78058B   17343.14789866 0.00000000  00000-0  00000-0 0    04
2 10942   7.6268  27.4850 1506562  64.6200 310.2225  0.99621095    02
Source of the keplerian elements: McCants